SYRACUSE 4A

Last updated on Fri Oct 04 2024 00:02:42 GMT+0000 (Coordinated Universal Time)

1 49333U 21095B 24277.21924214 .00000139 00000+0 00000+0 0 9997 2 49333 0.0187 202.6683 0001544 339.0936 315.0723 1.00271310 11721
UTC large
Height (km)
Speed (km/s)
/
Latitude / Longitude
Inclination (degrees)
Orbital Period (minutes)
Azimuth
Elevation
Range (km)
Doppler Factor

Next 0 passes for location: London (51.5072 / 0.1276)

Sorry there are no passes over London.